Welcome to the New NWS' Forecast!
Most changes are behind the scenes, but click here for differences you might notice.
Latest weather observations around

Seattle, Seattle-Tacoma International Airport (KSEA)

Using English Units (Switch to International System of Units)
Date/ Time (PST) Wind (mph) Vis. (mi) Weather Sky Cond. Temp (°F) Rel. Humidity Wind Chill (°F) Heat Index (°F) Pressure Precip. (in)
Air Dwpt 6 hour Altimeter (inHg) Sea level (inHg) 1 hr 3 hr 6 hr
Max Min
Nov 16 13:53 N 11 10 Mostly Cloudy BKN012 BKN040 52 47     83%     30.22 30.24      
Nov 16 12:53 N 13 10 Cloudy FEW007 OVC011 53 48     83%     30.22 30.24      
Nov 16 11:53 N 14 10 Mostly Cloudy FEW006 BKN010 BKN050 55 50     83%     30.23 30.25      
Nov 16 11:38 N 13 10 Cloudy FEW006 OVC010 54 50     86%     30.23        
Nov 16 10:53 N 13 10 Cloudy FEW005 OVC008 53 49     86%     30.24 30.26      
Nov 16 10:07 N 9 5 Clear   52 49     89%     30.24        
Nov 16 09:53 N 8 4 Clear   52 49     89%     30.24 30.26     0
Nov 16 08:53 N 8 3 Fog/Mist OVC003 51 49     92%     30.23 30.25      
Nov 16 08:08 N 8 2 Fog/Mist OVC003 51 49     92%     30.23        
Nov 16 07:53 N 7 1 Fog/Mist OVC002 51 50     96%     30.22 30.24 0    
Nov 16 07:32 N 7 0.25 Fog VV001 51 50     96%     30.22   0    
Nov 16 06:53 NNW 6 0.25 Light Rain and Fog/Mist OVC002 51 50     96%     30.21 30.23 0 0  
Nov 16 05:53 WSW 3 0.25 Fog OVC002 52 50     93%     30.21 30.22 0    
Nov 16 05:43 W 5 0.25 Light Drizzle and Fog/Mist OVC002 52 50     93%     30.2   0    
Nov 16 05:12 Calm 2 Light Rain and Fog/Mist OVC002 52 50     93%     30.21   0    
Nov 16 04:53 Calm 3 Light Rain and Fog/Mist OVC002 52 50     93%     30.21 30.23 0    
Nov 16 03:53 S 5 5 Clear   52 50     93%     30.2 30.22 0   0
Nov 16 02:53 S 7 4 Light Rain and Fog/Mist OVC004 52 50     93%     30.2 30.22 0    
Nov 16 02:13 S 5 4 Light Rain and Fog/Mist BKN004 OVC013 52 50     93%     30.2   0    
Nov 16 01:53 SSE 9 3 Light Rain and Fog/Mist FEW005 OVC011 52 50     93%     30.19 30.2 0    
Nov 16 00:53 SSE 7 10 Cloudy OVC012 54 47     77%     30.2 30.22      
Nov 15 23:53 S 13 10 Cloudy OVC014 54 46     74%     30.19 30.21      
Nov 15 22:53 S 8 10 Cloudy OVC015 54 45     72%     30.2 30.22      
Nov 15 21:53 S 13 10 Cloudy OVC016 54 45     72%     30.2 30.22      
Nov 15 20:53 SSW 14 10 Cloudy BKN019 OVC060 54 45     72%     30.2 30.22      
Nov 15 19:53 S 10 10 Cloudy BKN021 OVC070 53 44     71%     30.21 30.23      
Nov 15 18:53 S 14 10 Cloudy OVC021 54 45     72%     30.22 30.23      
Nov 15 17:53 S 8 10 Cloudy OVC024 54 45     72%     30.23 30.25      
Nov 15 16:53 SSE 7 10 Cloudy BKN027 OVC120 53 45     74%     30.24 30.26      
Nov 15 16:24 S 5 10 Cloudy BKN027 OVC120 54 45     72%     30.25        
Nov 15 15:53 SSW 5 10 Cloudy FEW024 BKN030 OVC140 54 45     72%     30.25 30.27      
Nov 15 14:53 SSW 9 10 Mostly Cloudy FEW026 BKN140 BKN250 54 45     72%     30.26 30.28      
Nov 15 13:53 WSW 5 10 Mostly Cloudy FEW018 BKN080 BKN200 55 45     69%     30.28 30.29      
Nov 15 12:53 SW 8 10 Cloudy FEW026 BKN080 OVC200 54 45     72%     30.29 30.31      
Nov 15 11:53 7 10 Mostly Cloudy SCT034 BKN100 BKN240 54 45     72%     30.3 30.32      
Nov 15 10:53 SSW 8 10 Partly Cloudy FEW015 SCT034 SCT200 53 45     74%     30.33 30.35      
Nov 15 09:53 S 6 10 Mostly Cloudy FEW024 BKN032 BKN200 51 45     79%     30.33 30.35      
Nov 15 09:46 S 6 10 Mostly Cloudy FEW024 BKN032 BKN200 52 45     77%     30.33        
Nov 15 08:53 S 5 10 Mostly Cloudy FEW023 BKN029 50 45     83%     30.34 30.37      
Nov 15 08:40 S 5 10 Cloudy FEW023 OVC029 50 45     83%     30.35        
Nov 15 07:53 S 3 10 Mostly Cloudy FEW024 BKN032 49 45     86% 48   30.35 30.37      
Nov 15 06:53 SE 7 10 Mostly Cloudy FEW012 SCT024 BKN031 49 45     86% 46   30.35 30.37      
Nov 15 06:41 SE 9 10 Mostly Cloudy FEW012 SCT023 BKN031 50 45     83%     30.35        
Nov 15 05:53 S 5 10 Mostly Cloudy FEW012 BKN022 BKN031 49 46     90% 47   30.37 30.39      
Nov 15 05:47 S 5 10 Mostly Cloudy FEW012 BKN022 BKN031 48 46     93% 46   30.36        
Nov 15 05:24 Calm 9 Cloudy FEW015 SCT020 OVC031 49 46     90%     30.37        
Nov 15 04:53 Calm 8 Cloudy FEW014 BKN019 OVC029 50 47     89%     30.37 30.39      
Nov 15 03:53 SW 5 7 Cloudy SCT015 BKN027 OVC042 50 47     89%     30.37 30.39 0   0
Nov 15 02:53 S 3 5 Light Rain and Fog/Mist OVC015 50 47     89%     30.38 30.4 0    
Nov 15 01:53 SSW 5 10 Cloudy OVC016 51 46     83%     30.38 30.4      
Nov 15 00:53 S 10 8 Cloudy OVC014 51 46     83%     30.37 30.39      
Nov 14 23:53 SSW 8 9 Cloudy OVC013 51 47     86%     30.38 30.4      
Nov 14 23:07 S 10 9 Cloudy OVC011 52 47     83%     30.38        
Nov 14 22:53 S 9 9 Cloudy OVC009 52 47     83%     30.38 30.4      
Nov 14 21:53 S 8 8 Cloudy OVC009 52 47     83%     30.38 30.4      
Nov 14 20:53 SSE 6 8 Cloudy OVC009 52 47     83%     30.37 30.39      
Nov 14 20:45 S 7 9 Cloudy OVC009 52 47     83%     30.36        
Nov 14 19:53 S 5 8 Cloudy OVC011 52 48     86%     30.35 30.37      
Nov 14 19:06 Calm 9 Cloudy OVC013 53 48     83%     30.35        
Nov 14 18:53 SSW 5 9 Cloudy OVC015 53 48     83%     30.35 30.37      
Nov 14 17:53 SW 5 9 Cloudy OVC016 53 48     83%     30.34 30.36      
Nov 14 16:53 WSW 10 10 Cloudy OVC017 54 47     77%     30.34 30.36      
Nov 14 15:53 SW 8 10 Mostly Cloudy BKN015 BKN060 55 49     80%     30.33 30.35     0
Nov 14 14:53 WSW 8 10 Mostly Cloudy BKN015 BKN060 56 49     77%     30.33 30.35      
Nov 14 13:53 S 16 10 Mostly Cloudy BKN016 BKN080 BKN250 57 49     74%     30.3 30.32      
Nov 14 13:38 S 18 10 Mostly Cloudy FEW012 BKN018 BKN080 BKN250 56 50     80%     30.3        
Nov 14 12:53 S 18 10 Mostly Cloudy SCT016 BKN080 BKN250 55 49     80%     30.29 30.31   0  
Nov 14 11:53 SSW 20 7 Mostly Cloudy and Windy FEW007 SCT016 BKN250 55 49     80%     30.29 30.31      
Nov 14 10:15 SSW 3 3 Light Rain and Fog/Mist FEW003 BKN017 OVC030 50 48     93%     30.3   0    
Nov 14 10:01 WSW 7 2.5 Light Rain and Fog/Mist FEW015 BKN023 OVC030 50 47     89%     30.29   0    
Nov 14 09:53 SW 10 2 Light Rain and Fog/Mist SCT023 OVC031 50 47     89%     30.27 30.29 0   0
Nov 14 09:46 SSW 10 2 Light Rain and Fog/Mist SCT023 OVC031 49 47     93% 45   30.27   0    
Nov 14 08:53 S 9 3 Light Rain and Fog/Mist BKN024 BKN030 OVC038 50 45     83%     30.25 30.27 0    
Nov 14 07:53 SW 7 5 Light Rain BKN028 OVC037 49 41     74% 46   30.26 30.28 0    
Nov 14 07:29 S 7 7 Cloudy BKN028 OVC075 49 41     74% 46   30.24        
Nov 14 06:53 S 7 9 Cloudy BKN030 BKN075 OVC150 49 40     71% 46   30.23 30.25 0 0  
Nov 14 05:53 SSW 14 10 Mostly Cloudy SCT033 SCT065 BKN150 50 37     61%     30.24 30.26      
Nov 14 04:53 S 13 9 Cloudy OVC040 49 38     66% 44   30.25 30.27      
Nov 14 03:53 SSW 7 9 Mostly Cloudy BKN046 48 37     66% 45   30.25 30.27     0
Nov 14 02:53 WSW 10 9 Mostly Cloudy FEW060 BKN160 47 35     63% 42   30.26 30.28      
Nov 14 01:53 SSE 8 10 Cloudy BKN048 BKN060 OVC070 47 37     68% 43   30.28 30.3      
Nov 14 00:53 WNW 3 10 Cloudy OVC050 47 38     71% 46   30.3 30.32   0  
Nov 13 23:53 SSW 8 10 Cloudy OVC050 48 37     66% 44   30.31 30.33 0    
Nov 13 22:53 WSW 3 10 Cloudy BKN060 OVC080 48 35     61% 47   30.3 30.32 0    
Nov 13 21:53 SSE 5 10 Cloudy OVC100 48 33     56% 46   30.3 30.33      
Nov 13 20:53 S 3 10 Cloudy BKN100 OVC150 49 33     54% 48   30.3 30.32      
Nov 13 19:53 SSW 6 10 Cloudy FEW090 BKN140 OVC200 49 33     54% 46   30.3 30.32      
Nov 13 18:53 S 9 10 Cloudy FEW090 BKN140 OVC200 50 32     50%     30.3 30.32      
Nov 13 17:53 S 11 10 Mostly Cloudy FEW090 SCT150 BKN200 51 31     46%     30.3 30.32      
Nov 13 16:53 S 14 10 Mostly Cloudy FEW085 SCT160 BKN250 51 30     44%     30.31 30.33      
Nov 13 15:53 S 10 10 Mostly Cloudy SCT180 BKN250 51 33     50%     30.32 30.34      
Nov 13 14:53 S 7 10 Mostly Cloudy FEW140 BKN180 53 31     43%     30.33 30.35      
Nov 13 13:53 SSE 9 10 Mostly Cloudy FEW140 BKN200 53 34     48%     30.34 30.37      
Nov 13 12:53 SSE 8 10 Mostly Cloudy SCT140 BKN200 52 33     48%     30.35 30.37      
Nov 13 11:53 SSE 8 10 Mostly Cloudy BKN140 BKN200 51 35     54%     30.36 30.38      
Nov 13 10:53 S 8 10 Mostly Cloudy FEW180 BKN250 52 35     52%     30.37 30.39      
Nov 13 09:53 S 10 10 Partly Cloudy SCT220 49 33     54% 45   30.37 30.4      
Nov 13 08:53 S 5 10 Partly Cloudy SCT220 46 35     65% 44   30.37 30.39      
Nov 13 07:53 SSW 3 10 Mostly Cloudy BKN220 42 36     79% 40   30.37 30.4      
Nov 13 06:53 SSW 5 10 Mostly Cloudy BKN230 41 38     89% 38   30.36 30.38      
Nov 13 05:53 Calm 10 Partly Cloudy SCT250 45 37     74%     30.35 30.37      
Nov 13 04:53 SSE 3 10 Mostly Cloudy BKN250 42 36     79% 40   30.34 30.37      
Nov 13 03:53 Calm 10 Mostly Cloudy BKN250 44 33     65%     30.35 30.37      
Nov 13 02:53 SE 6 10 Mostly Cloudy BKN250 42 33     70% 38   30.34 30.36      
Nov 13 01:53 WSW 3 10 Partly Cloudy SCT250 44 25     47% 43   30.35 30.37      
Nov 13 00:53 SSE 8 10 Partly Cloudy SCT250 48 23     37% 44   30.35 30.37      
Nov 12 23:53 SE 8 10 Partly Cloudy SCT250 49 23     36% 45   30.36 30.38      
Nov 12 22:53 ESE 11 10 Mostly Cloudy BKN250 51 23     33%     30.36 30.37      
Nov 12 21:53 SE 8 10 Mostly Cloudy BKN250 50 24     36%     30.36 30.38      
Nov 12 20:53 ESE 11 10 Mostly Cloudy BKN250 51 23     33%     30.34 30.37      
Nov 12 19:53 ESE 13 10 Mostly Cloudy BKN250 52 24     33%     30.35 30.38      
Nov 12 18:53 SE 10 10 Mostly Cloudy BKN250 52 24     33%     30.35 30.37      
Nov 12 17:53 ESE 11 10 Mostly Cloudy BKN250 53 24     32%     30.36 30.38      
Nov 12 16:53 ESE 8 10 Mostly Cloudy BKN250 55 25     31%     30.36 30.38      
Nov 12 15:53 ESE 9 10 Mostly Cloudy BKN250 58 24     27%     30.36 30.38      
Nov 12 14:53 E 9 10 Mostly Cloudy BKN250 60 24     25%     30.36 30.37      
Nov 12 13:53 ESE 10 10 Mostly Cloudy BKN250 61 25     25%     30.37 30.39      
Nov 12 12:53 6 10 Mostly Cloudy BKN250 59 27     29%     30.39 30.4      
Nov 12 11:53 E 6 10 Mostly Cloudy BKN250 57 27     31%     30.39 30.41      
Nov 12 10:53 E 6 10 Mostly Cloudy BKN250 55 25     31%     30.4 30.42      
Nov 12 09:53 E 8 10 Mostly Cloudy FEW180 BKN250 52 25     35%     30.4 30.42      
Nov 12 08:53 ENE 9 10 Mostly Cloudy BKN250 50 24     36%     30.41 30.43      
Nov 12 07:53 ENE 9 10 Mostly Cloudy BKN250 49 25     39% 45   30.41 30.44      
Nov 12 06:53 NE 8 10 Partly Cloudy SCT250 45 26     47% 41   30.4 30.43      
Nov 12 05:53 E 7 10 Clear CLR 47 25     42% 44   30.4 30.43      
Nov 12 04:53 ENE 8 10 Clear CLR 43 28     55% 38   30.41 30.43      
Nov 12 03:53 ENE 7 10 Clear CLR 46 25     43% 42   30.41 30.43      
Nov 12 02:53 ENE 10 10 Clear CLR 46 28     49% 41   30.41 30.44      
Nov 12 01:53 NE 6 10 Clear CLR 44 29     55% 41   30.42 30.44      
Nov 12 00:53 NE 9 10 Clear CLR 44 33     65% 39   30.43 30.45      
Nov 11 23:53 NNE 8 10 Clear CLR 45 33     63% 41   30.45 30.48      
Nov 11 22:53 NNE 9 10 Clear CLR 43 36     76% 38   30.45 30.47      
Nov 11 21:53 NNE 9 10 Clear CLR 43 35     73% 38   30.44 30.47      
Nov 11 20:53 NNE 11 10 Clear CLR 44 37     76% 38   30.44 30.47      
Nov 11 19:53 N 15 10 Partly Cloudy SCT200 43 37     79% 36   30.44 30.47      
Nov 11 18:53 N 13 10 Mostly Cloudy BKN200 44 36     73% 38   30.44 30.47      
Nov 11 17:53 N 13 10 Mostly Cloudy BKN200 45 35     68% 39   30.42 30.45      
Nov 11 16:53 N 13 10 Mostly Cloudy BKN200 46 36     68% 40   30.42 30.45      
Nov 11 15:53 N 10 10 Mostly Cloudy BKN200 48 38     68% 43   30.42 30.44      
Nov 11 14:53 N 9 10 Mostly Cloudy BKN210 48 37     66% 44   30.42 30.45      
Nov 11 13:53 N 13 10 Mostly Cloudy BKN210 49 39     69% 44   30.42 30.45      
Nov 11 12:53 N 14 10 Mostly Cloudy BKN220 50 39     66%     30.43 30.45      
Nov 11 11:53 N 14 10 Mostly Cloudy BKN220 47 37     68% 41   30.44 30.47      
Nov 11 10:53 NNE 16 10 Mostly Clear FEW005 FEW230 46 36     68% 39   30.45 30.47      
Nov 11 09:53 NNE 16 10 Partly Cloudy FEW005 SCT220 43 37     79% 35   30.45 30.47      
Nov 11 08:53 N 8 10 Partly Cloudy FEW004 SCT220 40 37     89% 34   30.45 30.48      
Nov 11 07:53 NNE 6 10 Partly Cloudy FEW001 SCT200 37 35     92% 32   30.44 30.47      
Nov 11 07:23 NE 6 5 Patchy Fog SCT001 37 35     92% 32   30.44        
Nov 11 07:22 NE 7 6 Fog/Mist SCT001 37 35     92% 32   30.44        
Nov 11 07:20 NNE 7 2.5 Fog/Mist BKN001 37 35     92% 32   30.44        
Nov 11 07:13 NNE 6 0.12 Fog VV001 37 35     92% 32   30.44        
Nov 11 06:53 NNE 3 0.12 Fog VV001 37 36     96% 35   30.44 30.46      
Nov 11 06:16 NNE 8 0.12 Fog VV001 37 36     96% 31   30.43        
Nov 11 06:06 NNE 7 0.12 Fog VV001 37 36     96% 32   30.43        
Nov 11 05:53 NNE 10 0.12 Fog VV001 37 36     96% 30   30.43 30.46      
Nov 11 05:38 NE 9 0.25 Fog VV001 37 36     96% 30   30.43        
Nov 11 05:20 NE 7 0.06 Fog VV001 37 35     92% 32   30.43        
Nov 11 04:53 NE 7 0.25 Fog VV001 35 33     92% 29   30.42 30.45      
Nov 11 04:46 NE 7 0.75 Fog/Mist SCT001 34 32     92% 28   30.42        
Nov 11 03:53 NNE 5 5 Fog/Mist SCT001 35 32     88% 31   30.42 30.44      
Nov 11 02:53 Calm 5 Fog/Mist SCT002 38 35     89%     30.43 30.46      
Nov 11 01:55 ENE 3 7 Mostly Clear FEW002 38 36     92% 36   30.44 30.46      
Nov 11 01:53 ENE 3 7 Mostly Clear FEW002 38 36     92% 36   30.44 30.46      
Nov 11 01:42 ENE 3 1.5 Fog/Mist SCT002 39 37     93% 37   30.44        
Nov 11 01:16 Calm 5 Fog/Mist FEW003 39 36     89%     30.44        
Nov 11 00:53 Calm 5 Fog/Mist CLR 40 38     93%     30.45 30.47      
Nov 11 00:49 NNE 3 1.75 Fog/Mist CLR 39 37     93% 37   30.45        
Nov 10 23:53 NE 3 7 Mostly Clear FEW017 41 38     89% 39   30.45 30.47      
Nov 10 23:27 N 5 8 Partly Cloudy SCT017 41 38     89% 38   30.45        
Nov 10 22:53 NE 5 7 Mostly Cloudy BKN017 42 38     85% 39   30.45 30.47      
Nov 10 22:20 NE 5 9 Mostly Cloudy BKN017 42 38     85% 39   30.45        
Nov 10 21:55 NNE 6 9 Partly Cloudy SCT017 43 38     82% 39   30.44        
Nov 10 21:53 NNE 6 9 Mostly Cloudy BKN017 42 37     82% 38   30.44 30.47      
Nov 10 21:45 NNE 6 8 Partly Cloudy SCT017 40 37     89% 36   30.44        
Nov 10 21:42 N 5 7 Mostly Cloudy BKN017 40 37     89% 37   30.44        
Nov 10 20:53 NE 6 10 Mostly Clear FEW005 42 38     85% 38   30.43 30.46      
Nov 10 19:53 NE 6 10 Clear CLR 43 38     82% 39   30.42 30.45      
Nov 10 18:53 NNE 7 10 Clear CLR 45 38     76% 41   30.41 30.44      
Nov 10 17:53 N 7 10 Mostly Clear FEW023 44 38     79% 40   30.4 30.43      
Nov 10 16:53 NNE 7 10 Mostly Clear FEW019 46 37     71% 42   30.39 30.42      
Nov 10 15:53 NNE 11 10 Mostly Clear FEW019 49 37     63% 44   30.39 30.42      
Nov 10 14:53 NNE 14 10 Mostly Clear FEW019 49 37     63% 44   30.4 30.42      
Nov 10 14:06 N 10 10 Partly Cloudy FEW019 SCT025 50 38     63%     30.41        
Nov 10 13:53 N 13 10 Mostly Cloudy SCT019 BKN025 49 38     66% 44   30.41 30.43      
Nov 10 12:53 N 7 10 Mostly Cloudy BKN016 BKN022 48 40     73% 45   30.4 30.43      
Nov 10 12:26 N 11 10 Mostly Cloudy BKN016 48 39     71% 43   30.4        
Nov 10 11:53 N 11 10 Partly Cloudy FEW009 SCT013 48 39     71% 43   30.4 30.42      
Nov 10 11:22 NNE 9 9 Mostly Cloudy SCT009 BKN013 BKN030 47 40     76% 43   30.4        
Nov 10 10:53 N 10 8 Cloudy BKN008 OVC020 46 40     79% 41   30.41 30.43      
Nov 10 10:24 N 8 8 Cloudy BKN009 OVC015 46 40     79% 42   30.4        
Nov 10 09:53 NE 7 7 Cloudy FEW007 OVC016 45 40     82% 41   30.4 30.42      
Nov 10 08:53 NNE 13 6 Haze FEW006 BKN013 BKN033 45 40     82% 39   30.39 30.41      
Nov 10 07:53 N 5 6 Fog/Mist FEW006 SCT018 BKN033 42 40     92% 39   30.38 30.4      
Nov 10 06:53 NE 7 6 Fog/Mist SCT006 BKN020 OVC033 43 39     86% 39   30.35 30.37      
Nov 10 06:19 NNE 3 4 Fog/Mist OVC005 43 40     89% 41   30.34        
Nov 10 06:02 ENE 3 2.5 Fog/Mist OVC004 42 40     92% 40   30.34        
Nov 10 05:53 ENE 3 1.5 Fog/Mist OVC002 42 40     92% 40   30.34 30.37      
Nov 10 05:22 E 3 0.5 Fog OVC002 41 39     93% 39   30.34        
Nov 10 05:12 ENE 5 2.5 Fog/Mist OVC002 42 39     89% 39   30.34        
Nov 10 04:53 E 3 4 Fog/Mist OVC002 42 38     85% 40   30.34 30.37      
Nov 10 03:53 SE 3 6 Fog/Mist BKN004 OVC044 40 38     93% 38   30.33 30.36 0   0
Nov 10 02:53 SE 5 4 Fog/Mist SCT004 BKN022 BKN055 40 37     89% 37   30.33 30.36      
Nov 10 02:28 ESE 3 5 Fog/Mist SCT004 SCT040 OVC060 40 38     93% 38   30.33        
Nov 10 01:53 SE 5 6 Fog/Mist BKN040 OVC060 40 38     93% 37   30.33 30.36 0    
Nov 10 01:41 SE 6 6 Fog/Mist FEW025 OVC042 40 38     93% 36   30.33   0    
Nov 10 00:53 SE 5 7 Cloudy BKN005 OVC030 41 38     89% 38   30.33 30.36      
Nov 10 00:46 SE 5 7 Cloudy BKN005 OVC030 41 38     89% 38   30.33        
Nov 10 00:17 SE 5 6 Fog/Mist FEW005 OVC033 40 38     93% 37   30.33        
Nov 09 23:53 S 3 5 Fog/Mist BKN031 41 38     89% 39   30.32 30.35      
Nov 09 22:53 Calm 6 Fog/Mist SCT017 BKN055 41 38     89%     30.33 30.35      
Nov 09 21:53 S 5 7 Mostly Cloudy FEW008 BKN012 BKN022 40 38     93% 37   30.32 30.35      
Nov 09 21:11 Calm 9 Mostly Cloudy FEW008 BKN012 41 37     86%     30.32        
Nov 09 20:53 Calm 8 Mostly Cloudy BKN012 41 38     89%     30.32 30.34      
Nov 09 20:10 Calm 9 Mostly Cloudy BKN010 41 38     89%     30.31        
Nov 09 19:53 Calm 8 Mostly Cloudy SCT010 BKN044 42 38     85%     30.31 30.33      
Nov 09 18:53 W 3 10 Mostly Cloudy FEW026 BKN046 42 38     85% 40   30.3 30.33      
Nov 09 17:53 Calm 10 Mostly Cloudy SCT025 BKN048 43 37     79%     30.29 30.32      
Nov 09 17:42 Calm 10 Mostly Cloudy SCT025 BKN048 43 37     79%     30.29        
Nov 09 16:53 Calm 10 Cloudy FEW009 OVC023 43 37     79%     30.29 30.32      
Nov 09 15:53 S 3 10 Cloudy FEW009 OVC026 42 38     85% 40   30.29 30.32     0
Nov 09 15:15 SSE 7 10 Cloudy OVC028 42 37     82% 38   30.28        
Nov 09 14:53 SSE 5 10 Cloudy FEW009 OVC030 42 37     82% 39   30.28 30.3      
Nov 09 13:53 SE 5 10 Cloudy FEW007 BKN037 OVC050 41 37     86% 38   30.28 30.31      
Nov 09 12:53 SSE 8 10 Cloudy FEW007 BKN045 OVC060 41 36     82% 36   30.28 30.31 0 0  
Nov 09 11:53 ESE 10 7 Light Rain FEW005 BKN037 OVC055 41 36     82% 35   30.27 30.3 0    
Nov 09 10:53 NNE 6 7 Cloudy FEW004 BKN038 OVC080 41 38     89% 37   30.31 30.33 0    
Nov 09 10:46 5 7 Cloudy SCT004 OVC038 41 38     89% 38   30.3   0    
Nov 09 10:17 NNE 3 6 Light Rain BKN006 OVC055 42 37     82% 40   30.28   0    
Nov 09 09:53 Calm 6 Light Rain and Fog/Mist SCT005 BKN055 OVC095 41 38     89%     30.29 30.31 0   0
Nov 09 08:53 Calm 10 Cloudy FEW005 BKN095 OVC130 41 36     82%     30.29 30.32      
Nov 09 07:53 3 10 Cloudy FEW004 BKN090 OVC130 38 33     82% 36   30.3 30.32      
Nov 09 06:53 SE 9 10 Cloudy FEW002 BKN130 OVC200 38 32     79% 31   30.3 30.32      
Nov 09 05:53 Calm 10 Cloudy OVC160 36 31     82%     30.33 30.36      
Nov 09 04:53 SSE 5 10 Mostly Cloudy BKN230 35 30     82% 31   30.34 30.36      
Nov 09 03:53 SSE 3 10 Partly Cloudy SCT160 36 32     85% 33   30.36 30.39      
Nov 09 02:53 ESE 6 10 Clear CLR 37 32     82% 32   30.39 30.41      
Nov 09 01:53 ESE 5 8 Clear CLR 37 32     82% 33   30.41 30.43      
Nov 09 00:53 ENE 3 9 Clear CLR 39 33     79% 37   30.43 30.45      
Nov 08 23:53 Calm 10 Clear CLR 40 34     79%     30.45 30.47      
Nov 08 22:53 ENE 5 10 Clear CLR 41 36     82% 38   30.46 30.49      
Nov 08 21:53 Calm 10 Clear CLR 43 36     76%     30.47 30.5      
Nov 08 20:53 N 6 10 Clear CLR 41 34     76% 37   30.48 30.51      
Nov 08 19:53 NNE 6 10 Clear CLR 44 36     73% 41   30.49 30.52      
Nov 08 18:53 NNE 8 10 Mostly Clear FEW250 46 36     68% 42   30.5 30.53      
Nov 08 17:53 N 6 10 Mostly Clear FEW250 43 35     73% 39   30.51 30.54      
Nov 08 16:53 N 6 10 Partly Cloudy SCT250 45 36     71% 42   30.51 30.54      
Nov 08 15:53 N 7 10 Partly Cloudy SCT250 49 35     59% 46   30.52 30.55      
Nov 08 14:53 NNE 7 10 Partly Cloudy SCT250 50 34     54%     30.52 30.55      
Nov 08 13:53 N 5 10 Partly Cloudy FEW015 SCT250 50 36     58%     30.53 30.56      
Nov 08 12:53 ENE 3 10 Mostly Clear FEW009 FEW250 48 38     68% 47   30.54 30.57      
Nov 08 11:53 NE 3 10 Partly Cloudy FEW006 SCT250 47 38     71% 46   30.56 30.59      
Nov 08 11:40 NE 3 10 Partly Cloudy SCT006 SCT250 46 38     73% 45   30.57        
Nov 08 10:53 NNE 5 10 Mostly Cloudy BKN006 44 37     76% 41   30.57 30.6      
Nov 08 10:29 NNE 5 9 Mostly Cloudy BKN006 45 37     74% 43   30.57        
Nov 08 09:53 Calm 10 Patchy Fog SCT004 44 35     70%     30.57 30.59      
Nov 08 08:53 NE 5 7 Patchy Fog FEW003 42 37     82% 39   30.56 30.59      
Nov 08 07:53 ENE 3 6 Patchy Fog SCT005 39 33     79% 37   30.56 30.59      
Nov 08 06:53 Calm 10 Patchy Fog FEW005 39 33     79%     30.55 30.58      
Nov 08 06:39 Calm 10 Mostly Clear FEW005 37 32     82%     30.55        
Nov 08 05:53 ESE 7 9 Cloudy BKN005 OVC010 40 34     79% 35   30.55 30.57      
Nov 08 04:53 SE 6 10 Cloudy OVC007 39 34     82% 35   30.54 30.57      
Nov 08 03:53 ESE 6 10 Partly Cloudy SCT007 38 33     82% 33   30.54 30.57      
Nov 08 02:53 ESE 6 10 Clear CLR 38 34     85% 33   30.54 30.56      
Nov 08 01:53 SE 5 10 Clear CLR 39 35     86% 36   30.53 30.56      
Nov 08 00:53 Calm 10 Clear CLR 40 35     83%     30.53 30.55      
Nov 07 23:53 ESE 6 10 Clear CLR 41 37     86% 37   30.52 30.54      
Nov 07 22:53 Calm 10 Clear CLR 42 37     82%     30.51 30.53      
Nov 07 21:53 WNW 5 10 Clear CLR 42 37     82% 39   30.49 30.52      
Nov 07 20:53 NE 8 10 Clear CLR 45 37     74% 41   30.48 30.5      
Nov 07 19:53 NNE 8 10 Clear CLR 46 37     71% 42   30.46 30.48      
Nov 07 18:53 NNE 9 10 Clear CLR 46 37     71% 41   30.46 30.48      
Nov 07 17:53 N 9 10 Mostly Clear FEW200 47 36     65% 43   30.45 30.47      
Nov 07 16:53 N 6 10 Partly Cloudy FEW030 SCT200 47 37     68% 44   30.44 30.47      
Nov 07 15:53 NNE 6 10 Partly Cloudy FEW028 SCT200 50 37     61%     30.44 30.46      
Nov 07 14:53 NE 9 10 Partly Cloudy SCT028 SCT200 51 38     61%     30.43 30.46      
Nov 07 13:53 6 10 Partly Cloudy FEW020 SCT028 SCT200 53 39     59%     30.43 30.45      
Nov 07 12:53 N 11 10 Partly Cloudy FEW018 SCT034 50 39     66%     30.43 30.45      
Nov 07 11:53 N 8 10 Mostly Cloudy FEW008 SCT017 BKN032 50 40     68%     30.42 30.44      
Nov 07 11:44 NNW 6 10 Mostly Cloudy FEW008 SCT017 BKN032 49 41     74% 46   30.42        
Nov 07 11:19 N 8 10 Mostly Cloudy FEW008 SCT014 BKN025 48 42     80% 44   30.42        
Nov 07 10:53 NNW 11 10 Mostly Cloudy FEW008 BKN012 BKN035 48 42     80% 43   30.42 30.44      
Nov 07 09:53 NNE 9 10 Mostly Cloudy FEW008 BKN013 BKN036 49 43     80% 45   30.4 30.42      
May 15 00:53 WSW 6 10 Mostly Clear FEW250 63 51     65%     29.89 29.9      
May 14 14:53 NW 8 10 Mostly Clear FEW050 FEW250 84 55     37%   83 29.9 29.91      
May 14 05:53 SSW 3 10 Mostly Clear FEW250 59 52     78%     29.96 29.97      
May 13 17:53 N 5 10 Mostly Clear FEW250 84 46     27%   82 29.9 29.91      
May 13 01:53 NE 7 10 Clear CLR 60 47     62%     29.97 29.98      
May 12 18:53 NNE 13 10 Mostly Clear FEW030 74 49     41%   73 29.98 29.99      
May 12 17:53 N 13 10 Mostly Clear FEW030 76 49     39%   75 29.99 30.01      
May 12 13:53 NNE 11 10 Clear   72 51     48%   71 30.07 30.08      
Jun 12 03:53 SW 7 10 Partly Cloudy SCT011 52 49     89%     30 30.02      
Jun 11 13:53 WSW 7 10 Partly Cloudy FEW040 SCT170 65 48     54%     30.02 30.04      
Jun 11 02:53 S 5 10 Mostly Cloudy SCT080 BKN180 53 49     86%     29.99 30.01      
Jun 10 15:53 WNW 10 10 Partly Cloudy SCT045 SCT200 66 41     40%     29.86 29.87      
Jun 07 10:53 W 7 10 Mostly Cloudy FEW120 BKN250 67 48     51%     29.78 29.79      
Jun 06 05:53 NNE 6 10 Partly Cloudy SCT140 SCT250 56 43     62%     30.01 30.03      
Jun 05 21:53 N 8 10 Mostly Cloudy BKN250 62 43     50%     30.06 30.07